Lapse_Rate
1.7 1.6 1.5 1.4 1.3 1.2 0.8 0.6 0.5 0.4 0.4 0.4 0.4 0.3 0.0 -0.5 -1.0 3.8 5.7 7.6 7.8 5.0 4.9 8.7 9.0 8.7 8.4 7.7 7.9 7.9 6.5 6.5 6.5 6.5 6.5 6.5 6.5 6.7 7.5 6.4 7.3 7.3 6.8 7.1 7.0
1.6 1.6 1.4 1.4 1.2 0.8 0.6 0.4 0.3 0.3 0.4 0.4 0.4 0.4 0.2 -0.6 0.8 3.6 6.2 5.3 4.9 5.4 6.8 8.5 7.9 8.2 7.0 7.0 6.9 6.4 6.5 6.5 6.5 6.5 6.5 6.3 6.6 6.2 6.6 6.1 6.0 6.8 7.2 7.6 7.4
2.0 1.8 1.6 1.5 1.2 1.0 0.8 0.5 0.4 0.5 0.6 0.6 0.3 0.2 -0.2 -0.4 4.7 7.6 3.6 4.0 3.9 4.7 8.5 9.0 8.6 7.9 6.6 6.6 6.7 6.3 6.5 6.5 6.5 6.6 6.6 6.4 6.2 6.7 6.0 6.5 5.7 5.6 6.1 6.4 7.1
2.6 2.2 1.9 1.8 1.5 1.3 1.1 0.8 0.8 0.8 0.8 0.5 0.2 0.4 0.2 2.6 6.5 5.7 3.7 3.6 3.8 5.6 8.2 8.5 7.9 6.7 6.4 6.5 6.9 6.5 6.5 6.5 6.4 6.6 6.6 6.5 6.7 6.2 5.7 5.5 6.1 6.2 7.0 6.2 6.2
3.0 2.9 2.6 2.2 1.7 1.5 1.2 0.8 0.8 0.8 0.4 0.0 0.1 0.3 2.2 7.3 7.7 6.6 3.7 3.8 5.2 6.0 8.5 8.0 7.3 6.8 6.5 6.5 6.5 6.5 6.5 6.7 6.7 6.3 6.3 6.7 6.1 6.4 6.1 6.3 6.5 6.7 7.2 6.4 6.4
3.0 2.7 2.4 1.8 1.1 0.8 0.7 0.5 0.5 0.4 -0.1 0.1 0.7 0.6 4.4 6.7 9.0 9.2 8.7 6.2 8.2 7.7 8.4 8.2 7.6 7.6 6.7 6.4 6.4 6.4 6.4 6.5 6.5 6.6 6.5 6.4 6.2 5.8 6.2 6.5 6.7 6.8 5.8 5.8 6.0
2.7 2.4 1.9 1.4 0.9 0.6 0.6 0.2 0.0 -0.4 -0.3 0.3 0.8 2.3 7.7 7.0 9.3 8.7 8.5 9.2 9.0 9.0 8.1 8.6 8.4 7.4 7.2 6.5 6.9 6.7 6.5 6.5 6.4 6.4 6.5 6.3 6.5 6.5 6.4 6.6 6.4 6.0 5.8 5.8 5.5
2.8 2.6 2.1 1.7 1.4 1.0 0.7 0.6 0.4 0.0 0.4 0.6 0.9 4.8 7.4 8.3 7.9 8.2 9.2 9.1 9.5 9.4 8.8 8.5 8.4 7.7 7.1 7.1 6.7 6.5 6.5 6.5 6.5 6.5 6.5 6.3 6.5 6.5 6.2 6.4 5.8 5.8 5.3 5.2 5.6
3.3 2.7 2.0 1.6 1.2 1.2 0.5 0.7 0.8 0.7 1.2 1.2 3.6 7.2 7.1 5.7 8.4 9.3 9.3 8.6 8.9 9.0 8.9 9.1 8.4 7.1 6.9 6.5 6.5 6.5 6.5 6.5 6.5 6.4 6.5 6.5 6.5 6.5 6.4 6.4 5.9 5.6 5.5 5.4 5.4
3.4 2.8 2.0 1.8 1.5 1.2 0.6 0.8 2.7 1.6 3.1 5.8 8.2 7.5 7.9 7.6 8.6 8.2 9.0 8.8 8.3 8.2 7.8 7.6 7.0 6.5 6.5 6.5 6.5 6.5 6.5 6.5 6.5 6.5 6.5 6.5 6.5 6.5 5.7 5.8 5.2 5.1 5.0 5.0 5.3
3.5 2.9 2.0 1.7 1.5 1.1 1.9 7.3 7.3 7.1 7.7 7.4 7.5 7.5 7.9 8.3 8.9 8.5 9.0 8.5 8.2 7.5 6.5 6.7 6.5 6.5 6.5 6.5 6.5 6.5 6.5 6.5 6.5 6.5 6.5 6.5 6.5 6.5 5.8 5.4 5.6 4.8 4.8 4.9 5.2
3.4 2.8 2.3 2.0 1.6 1.6 5.9 8.1 6.9 6.3 6.8 6.6 8.1 8.0 8.5 7.6 7.3 8.0 9.0 7.3 6.9 6.5 6.5 6.5 6.5 6.5 6.5 6.5 6.5 6.5 6.5 6.5 6.5 6.5 6.5 6.5 6.5 6.5 6.5 6.3 6.0 6.0 5.1 4.8 5.0
3.0 2.5 2.1 2.0 2.0 5.3 8.2 6.7 7.2 8.2 6.9 7.3 8.0 7.8 7.9 8.0 7.2 7.3 8.1 7.5 6.5 6.5 6.5 6.5 6.5 6.5 6.5 6.5 6.5 6.5 6.5 6.5 6.5 6.5 6.5 6.5 6.5 6.5 6.5 6.3 6.3 6.4 6.4 5.7 5.1
2.8 2.4 2.3 1.8 3.8 8.0 8.2 7.2 6.9 8.1 6.5 6.5 6.8 7.5 7.9 8.0 6.7 8.4 8.5 7.5 6.6 6.5 6.5 6.5 6.5 6.5 6.5 6.5 6.5 6.5 6.5 6.5 6.5 6.5 6.5 6.5 6.5 6.5 6.5 6.5 6.5 5.2 4.6 5.6 4.7
3.3 2.9 2.5 2.5 5.8 8.2 7.3 6.7 6.7 7.5 6.5 6.5 6.7 8.6 8.1 7.0 7.1 7.2 8.2 7.5 6.5 6.5 6.5 6.5 6.5 6.5 6.5 6.5 6.5 6.5 6.5 6.5 6.5 6.5 6.5 6.5 6.5 6.5 6.5 6.5 6.5 6.5 4.8 5.8 4.9
3.8 3.4 2.9 6.9 6.6 8.7 6.9 6.4 7.0 6.5 6.5 6.5 6.8 6.6 6.5 6.8 6.9 7.4 7.3 7.8 7.4 6.5 6.5 6.5 6.7 6.5 6.5 6.5 6.5 6.5 6.5 6.5 6.5 6.5 6.5 6.5 6.5 6.5 6.5 6.5 6.5 6.5 5.3 5.9 6.4
3.8 3.5 3.5 6.4 8.1 7.1 6.6 8.0 6.5 6.5 6.5 6.5 6.5 6.5 6.5 6.5 6.5 6.5 6.5 6.5 6.5 6.5 6.5 6.5 6.5 6.5 6.5 6.5 6.5 6.5 6.5 6.5 6.5 6.5 6.5 6.5 6.5 6.5 6.5 6.5 6.5 6.5 5.4 5.8 6.7
3.6 3.6 5.5 7.8 6.8 6.0 7.1 6.6 6.5 6.5 6.5 6.5 6.5 6.5 6.5 6.5 6.5 6.5 6.5 6.5 6.5 6.5 6.5 6.5 6.5 6.5 6.5 6.5 6.5 6.5 6.5 6.5 6.5 6.5 6.5 6.5 6.5 6.5 6.5 6.1 6.0 6.7 6.0 5.3 6.6
4.6 6.4 7.9 9.0 5.8 6.2 7.3 6.5 6.5 6.5 6.5 6.5 6.5 6.5 6.5 6.5 6.5 6.5 6.5 6.5 6.5 6.5 6.5 6.5 6.5 6.5 6.5 6.5 6.5 6.5 6.5 6.5 6.5 6.5 6.5 6.5 6.5 6.5 6.5 6.5 6.4 6.1 5.3 6.2 6.3
5.9 7.4 7.7 7.2 6.8 6.4 6.6 6.5 6.5 6.6 6.6 6.5 6.5 6.5 6.5 6.5 6.5 6.5 6.5 6.5 6.5 6.5 6.7 6.5 6.5 6.5 6.5 6.6 6.5 6.5 6.5 6.5 6.5 6.5 6.5 6.5 6.5 6.5 6.5 6.5 6.5 6.5 6.4 5.6 4.8
6.4 6.0 7.0 7.2 7.2 7.3 6.5 6.5 6.5 7.1 7.0 6.5 6.5 6.5 6.5 6.5 6.5 6.5 6.5 6.5 6.5 6.5 6.7 6.5 6.5 6.5 6.5 6.5 6.5 6.5 6.5 6.5 6.5 6.5 6.5 6.5 6.5 6.5 6.5 6.5 6.5 6.5 5.9 5.5 5.1
4.9 6.5 6.3 7.6 6.3 6.7 6.5 6.5 5.7 6.7 7.2 6.6 6.6 6.5 6.5 6.5 6.5 6.5 6.5 6.5 6.9 6.7 6.5 6.5 6.5 6.5 6.5 6.5 6.5 6.5 6.5 6.5 6.5 6.5 6.5 6.5 6.5 6.5 6.5 6.5 6.3 6.2 6.4 5.8 5.6
4.8 6.5 6.8 7.1 6.5 6.5 6.6 6.5 6.7 6.5 6.5 6.5 6.5 6.5 6.5 6.5 6.5 6.5 6.5 6.8 6.9 6.6 6.5 6.5 6.5 6.5 6.5 6.5 6.5 6.5 6.5 6.5 6.5 6.5 6.5 6.5 6.5 6.5 6.5 6.5 6.5 6.4 6.5 6.7 6.9
5.1 6.5 7.3 7.6 7.5 6.5 6.5 6.5 6.5 7.1 6.7 6.8 6.5 6.6 6.5 6.5 6.5 6.5 6.5 6.5 6.8 6.8 7.1 6.7 6.5 6.5 6.5 6.5 6.5 6.5 6.5 6.5 6.5 6.5 6.5 6.5 6.5 6.5 6.5 6.5 6.7 5.9 6.3 6.6 6.8
6.3 6.7 7.3 6.5 6.6 6.5 6.5 6.5 6.5 6.5 6.8 6.9 6.5 6.5 6.5 6.5 6.5 6.5 6.5 6.5 6.6 7.0 6.7 6.5 6.5 6.5 6.5 6.5 6.5 6.5 6.5 6.5 6.5 6.5 6.5 6.5 6.5 6.5 6.5 6.5 6.6 7.0 6.5 6.5 6.8
5.9 6.7 5.9 6.7 6.3 6.5 6.5 6.5 6.5 6.5 6.5 6.5 6.5 6.5 6.5 6.5 6.5 6.5 6.5 6.5 6.5 6.5 6.5 6.5 6.5 6.5 6.5 6.5 6.5 6.5 6.5 6.5 6.5 6.5 6.5 6.5 6.5 6.5 6.8 7.0 6.7 6.7 6.9 6.8 6.9
6.1 7.0 7.0 6.8 6.5 6.5 6.5 6.5 6.5 6.6 6.8 6.9 6.6 6.5 6.5 6.5 6.9 7.0 7.0 6.8 6.6 6.5 6.5 6.5 6.5 6.5 6.5 6.5 6.5 6.5 6.5 6.5 6.5 6.5 6.5 6.5 6.5 6.5 6.5 6.5 6.8 6.8 6.6 7.1 6.9
Wind_Speed
16 17 18 19 20 21 21 22 22 22 21 21 21 21 20 18 23 14 10 5 6 12 5 7 7 6 6 4 1 2 3 5 9 8 2 5 1 8 3 8 1 5 4 7 11
16 17 18 20 21 22 23 23 22 21 22 20 20 20 20 20 15 12 3 7 10 13 8 10 8 7 4 6 5 3 4 7 6 7 9 9 2 8 3 7 9 5 6 7 9
17 19 21 22 23 23 24 24 23 22 22 22 20 18 17 16 8 4 2 4 7 12 12 9 7 7 8 6 7 6 5 11 14 8 7 10 10 8 8 7 9 8 10 11 7
19 21 22 23 24 25 25 25 24 25 23 21 19 17 16 6 4 4 2 7 6 12 13 10 8 7 6 8 10 12 14 13 12 9 7 8 11 11 9 9 11 10 4 9 11
20 22 23 25 26 27 28 27 27 26 24 18 12 9 6 6 6 7 9 7 8 10 12 9 10 7 10 7 9 11 12 12 13 8 7 9 12 12 16 12 10 10 5 6 6
20 21 23 24 26 28 29 28 28 27 21 14 9 3 4 7 1 5 3 6 8 10 11 10 9 8 10 10 11 8 12 11 10 13 11 12 11 9 13 10 14 16 10 9 9
19 21 23 24 26 28 28 27 25 22 15 12 6 5 7 13 1 6 2 7 10 9 10 9 9 8 5 9 9 10 12 12 14 15 13 11 12 13 20 15 15 12 12 11 11
20 22 24 26 29 31 33 30 24 18 12 6 4 6 6 3 5 5 6 6 6 5 10 7 7 7 11 10 13 12 13 12 11 6 1 7 8 12 11 4 14 14 10 9 10
20 22 24 27 29 31 34 34 25 14 7 4 5 6 6 1 2 5 5 7 7 8 7 7 5 9 9 9 8 9 10 13 12 8 4 6 6 10 11 6 7 7 7 8 8
18 21 24 27 29 33 34 36 14 4 8 8 7 5 6 2 5 7 9 6 7 7 8 7 6 8 10 9 11 9 11 12 10 0 6 8 9 9 10 9 9 10 9 9 10
17 19 23 26 29 32 18 9 5 3 6 9 15 14 11 13 11 6 5 5 9 7 12 11 9 13 14 14 16 15 15 16 14 15 13 13 14 10 10 10 13 10 10 10 11
14 17 22 26 28 30 13 5 4 4 10 11 9 6 5 2 3 7 3 5 10 12 12 13 15 15 15 14 14 16 16 15 14 10 14 14 14 9 11 16 15 16 12 11 10
10 13 17 22 26 12 7 7 7 5 6 4 2 2 2 3 4 5 0 5 13 13 13 15 13 11 16 14 15 17 14 13 16 12 14 14 18 15 20 22 23 20 20 15 12
9 8 13 22 6 7 2 8 7 2 5 6 5 2 4 1 2 3 4 4 4 10 12 11 15 19 17 15 13 17 11 12 14 13 10 6 15 13 14 16 9 8 9 2 7
8 9 11 6 7 5 6 10 5 3 5 6 4 1 3 3 6 3 1 2 7 10 7 8 6 5 8 12 12 18 10 13 9 11 8 13 7 12 9 11 14 6 9 6 7
6 8 13 3 5 5 8 7 3 3 7 5 3 4 5 5 6 7 8 5 9 13 13 15 15 14 11 14 8 14 12 13 6 5 10 16 12 15 9 6 5 5 9 7 6
5 4 7 6 3 7 6 3 4 5 5 4 2 5 9 5 5 6 12 10 6 7 8 14 17 12 16 16 12 10 11 5 5 6 11 7 10 11 5 1 1 4 8 8 6
7 4 7 6 4 5 4 4 9 11 5 2 3 11 6 7 6 13 9 6 10 11 7 6 17 1 20 15 10 18 14 8 5 7 5 6 4 4 4 6 6 1 6 8 5
5 4 6 3 2 3 4 7 3 5 3 4 7 5 4 8 8 9 11 8 10 13 7 7 10 19 20 18 12 9 11 14 18 19 11 9 14 11 8 9 7 5 7 3 6
2 1 3 5 4 3 5 10 3 4 2 3 2 5 4 11 9 9 5 7 4 7 7 7 11 9 13 20 13 12 16 8 1 4 9 6 10 7 12 15 8 6 4 7 7
3 3 2 4 1 3 7 9 4 6 2 6 4 2 3 8 6 7 3 9 9 10 10 10 7 15 19 6 19 17 8 8 4 7 5 8 5 12 11 10 10 7 7 10 6
3 2 5 5 4 4 8 3 0 8 5 5 3 2 2 5 4 3 5 7 11 9 10 11 8 16 20 21 19 22 15 5 3 5 5 4 8 17 26 16 10 6 5 9 7
3 1 2 3 6 7 5 5 2 5 5 4 4 3 4 1 2 3 6 9 8 5 4 8 4 9 13 12 10 10 5 2 9 3 6 4 3 14 18 28 13 4 2 9 8
4 3 2 2 8 12 7 10 5 1 7 5 7 5 4 3 6 5 10 7 11 2 8 7 9 13 11 14 14 17 15 8 5 5 8 8 9 11 12 22 26 10 4 7 8
3 2 4 7 11 7 12 9 12 7 5 7 5 6 5 1 5 5 9 13 12 11 10 10 15 16 18 19 18 19 20 17 10 13 13 15 12 7 7 15 22 18 9 6 6
2 3 3 1 6 4 5 7 13 11 10 10 5 9 7 4 5 9 13 13 12 12 13 9 14 16 19 18 20 21 20 20 19 17 11 15 16 5 4 11 19 6 9 9 6
2 3 1 7 9 10 9 10 13 13 8 6 11 7 6 5 6 9 11 14 14 13 15 12 11 12 18 15 18 17 15 17 19 18 14 16 15 12 7 5 15 14 4 8 9
Wind_Direction
357 353 348 345 342 339 337 335 332 328 325 322 319 317 316 319 314 291 249 268 148 158 191 182 208 220 253 262 331 281 280 273 270 288 317 72 353 267 267 310 217 155 324 105 119
349 346 344 341 340 338 334 331 328 323 321 319 317 315 317 324 303 274 44 125 139 159 197 181 193 187 221 214 175 227 256 272 348 355 340 328 354 301 213 241 272 222 111 115 127
344 343 343 341 338 335 331 330 326 322 319 317 314 308 310 321 292 89 47 161 161 184 221 199 232 190 228 246 207 214 223 283 304 336 329 316 304 282 282 282 260 211 204 161 165
342 342 341 337 334 332 330 326 325 322 319 317 316 307 314 286 326 105 129 164 182 197 234 213 230 208 228 230 218 242 255 268 267 295 303 287 294 285 283 243 280 313 292 166 178
339 339 338 335 333 333 330 327 326 321 316 312 310 299 296 241 270 125 130 158 179 210 224 223 222 220 236 267 258 263 258 260 275 270 261 276 268 275 276 285 283 271 256 258 251
336 336 335 334 332 330 328 324 323 322 314 307 302 264 244 261 55 43 1 158 215 211 229 229 245 258 270 276 276 290 307 305 290 285 281 262 268 259 259 254 253 268 258 217 220
332 333 334 332 329 326 323 318 318 324 312 307 255 223 263 244 5 344 282 226 219 215 245 245 261 275 291 271 275 290 284 280 263 256 242 232 256 257 262 243 254 242 234 243 218
330 335 336 334 332 328 322 313 311 311 307 315 212 226 257 42 0 255 254 241 231 239 256 307 303 291 273 287 290 280 266 270 269 231 159 176 259 274 306 314 230 238 243 247 228
331 335 336 334 330 325 316 308 300 284 275 249 222 228 285 161 208 358 293 250 199 229 231 236 257 244 262 247 272 235 259 268 282 190 145 164 248 288 314 314 293 302 289 265 249
329 333 336 333 330 325 319 302 289 220 231 234 260 278 266 3 17 313 279 279 251 210 210 226 220 237 221 242 243 262 266 284 303 341 184 237 258 272 287 272 225 233 250 256 256
330 334 334 331 331 327 333 318 354 167 330 296 303 288 298 332 287 240 205 217 229 220 222 210 219 230 233 234 248 266 273 280 291 298 305 297 290 260 261 263 273 271 260 251 259
324 333 333 330 328 322 328 40 34 287 303 286 266 270 264 334 278 231 224 229 205 231 225 242 232 243 253 263 272 274 280 284 293 293 286 282 287 288 267 260 256 251 253 251 243
311 325 327 323 321 308 46 32 341 305 269 286 232 276 57 286 342 57 158 253 254 256 243 251 258 269 223 246 253 260 263 269 278 296 287 300 285 270 258 257 257 248 250 247 242
285 311 322 323 301 339 58 356 356 303 284 158 178 139 201 247 191 38 9 279 264 246 262 268 264 259 263 272 264 269 262 271 278 283 280 276 288 277 290 293 282 234 232 291 332
278 311 318 334 315 326 2 338 341 253 298 103 96 88 260 278 12 118 44 234 274 292 268 247 259 226 252 278 280 266 269 266 272 297 291 268 255 271 264 262 267 218 81 60 8
266 315 316 249 233 36 336 318 256 235 245 96 71 14 350 47 16 10 0 249 258 265 262 265 271 277 279 285 281 309 279 279 257 250 254 245 239 265 256 257 357 87 98 84 45
223 284 286 304 321 343 318 254 259 235 128 84 20 355 324 43 324 39 335 325 335 325 293 311 281 301 293 264 250 240 270 269 247 209 231 210 240 250 341 64 3 7 98 110 97
204 247 224 256 321 317 263 243 230 256 71 30 335 296 269 29 20 351 317 331 64 8 318 292 302 13 12 350 313 299 228 232 239 233 257 262 216 233 352 100 113 61 88 102 113
180 215 242 163 321 267 245 216 277 14 23 6 307 331 342 121 26 4 358 347 43 35 359 332 274 341 333 355 357 309 302 280 271 265 279 265 272 286 237 201 147 156 73 112 153
183 209 203 97 243 285 230 238 162 94 3 329 3 30 344 359 352 9 335 39 42 49 39 327 302 334 343 340 321 320 315 303 315 279 246 243 247 249 235 212 116 106 101 106 86
146 172 82 335 123 240 231 230 109 83 36 27 54 352 359 348 357 330 279 333 25 16 3 322 263 292 327 319 314 329 328 337 323 272 258 275 306 314 337 110 120 122 137 119 122
144 166 357 311 204 201 233 142 72 132 88 88 94 88 20 10 319 322 299 303 4 356 321 293 280 285 294 297 270 284 294 3 286 315 306 343 271 23 1 0 57 53 136 130 153
107 86 351 324 186 207 139 133 166 164 138 146 132 110 81 93 296 285 342 329 326 359 321 346 305 318 308 294 266 259 66 65 333 238 247 273 255 11 353 337 351 60 146 142 161
121 145 120 212 258 199 171 180 147 256 155 162 135 139 140 216 226 267 290 289 300 291 283 287 273 265 271 279 290 295 303 268 201 289 326 273 322 350 346 321 324 328 330 144 151
135 233 180 179 214 221 170 180 170 184 205 169 161 193 169 161 282 255 300 303 309 288 256 264 271 273 273 283 288 287 295 291 253 237 245 286 306 321 316 302 312 305 324 358 144
126 137 291 41 135 132 201 200 192 179 167 184 193 193 180 191 250 296 289 278 282 297 291 283 283 290 286 287 288 285 281 284 278 272 241 254 267 216 258 293 313 324 336 339 338
80 2 105 162 175 183 191 184 196 181 185 192 198 207 194 239 315 305 299 288 283 283 276 282 283 283 277 290 297 282 275 280 284 284 259 245 254 187 171 289 299 333 305 314 326